World > North America > United States > New York

Hourly Delaware County, NY Regional Weather

Feedback E-mail the Weather

Quick WX

Delaware County, NY Weather Maps

°F °C°F °C
Delaware County Weather Map
UTC Time: 6/30/2022, 19:27
Your Time:

Delaware County, NY Regional Weather

Expires:202206302000;;453684
ASUS41 KBGM 301910
RWRBGM

REGIONAL WEATHER ROUNDUP
NATIONAL WEATHER SERVICE BINGHAMTON NY
300 PM EDT THU JUN 30 2022

Note: "fair" indicates few or no clouds below 12,000 feet with no
significant weather and/or obstructions to visibility.

* = Station(s) that does not report precipitation, such as rain, 
snow, etc, also no thunder or fog.


NYZ009-015>018-022>025-036-037-044>046-055>057-062-302000
...Central New York...
  
CITY           SKY/WX    TMP DP  RH WIND       PRES   REMARKS
Binghamton     PTSUNNY   75  58  55 CALM      30.18F                  
Cortland       FAIR      79  55  44 W6        30.16F                  
Dansville      MOSUNNY   87  58  37 VRB7      30.10F HX  86           
Elmira         SUNNY     85  57  38 S6        30.12F                  
Endicott       CLEAR     81  57  44 N5        30.14F                  
Ithaca         SUNNY     83  59  44 VRB7      30.15F                  
Hamilton       SUNNY     79  54  41 CALM      30.15F                  
Monticello     SUNNY     80  57  45 NW6G17    30.19F                  
Norwich        PTSUNNY   79  57  47 NW6       30.17F                  
Oneonta        SUNNY     75  54  46 W6        30.18F                  
Penn Yan       MOSUNNY   84  57  39 S7        30.12F                  
Rome           MOSUNNY   78  51  38 W5        30.14F                  
Seneca Falls   CLEAR     82  54  36 SE3       30.12F                  
Sidney         MOSUNNY   79  61  53 S3        30.16F                  
Skaneateles    FAIR      79  59  50 SW8       30.15S                  
Syracuse       PTSUNNY   81  56  42 NW7       30.12F                  
$$
 

SKY/WX - Weather  TMP - Temperature  DP - Dew Point  RH - Humidity
WIND - Wind Direction/Speed PRES - Barometric Pressure VSB - Visibility
WCI - Wind Chill Index E13G22 Wind - East Wind 13 mph/Gusts of 22 mph

Trending Headlines

Delaware County Radar Loop



Delaware County Quick Facts


National Two Day Weather Forecast


E-mail the Delaware County Weather Forecast

Voice your opinion or tell us about page issues...